M I D A S
Marine Information and Data Acquisition System
Tripno 527 of the Zeeleeuw from 2003-06-30 06:33:44 to 2003-06-30 15:02:40
Back to CruiseResearch ActivitiesStationsMapUnderway DataData graphs

EquipmentUnitsComments
TimeDGPSUTC
LatitudeDGPSDM.mWGS84
LongitudeDGPSDM.mWGS84
SpeedMeteo Stationm/sRelative wind speed
DirectionMeteo StationdegRelative wind direction
TemperatureMeteo Stationdeg CelciusAir temperature
PressureMeteo StationPaAtmospheric pressure
HumidityMeteo Station%Relative humidity
Missing or incorrect values are displayed as -999
Metereological data collected by the RV Zeeleeuw from 2003-06-30 06:33:44 to 2003-06-30 15:02:40
Time Latitude Longitude Speed Direction Temperature Pressure Humidity
2003-06-30 06:34 51°13.59 2°56.12 4.1 354 17.2 100430 82
2003-06-30 06:35 51°13.59 2°56.12 3.4 352 17.2 100430 82
2003-06-30 06:36 51°13.59 2°56.12 3.7 8 17.2 100430 82
2003-06-30 06:37 51°13.6 2°56.1 2.7 9 17.1 100430 82
2003-06-30 06:38 51°13.61 2°56.05 1.9 25 17.1 100440 82
2003-06-30 06:39 51°13.64 2°55.94 2.1 16 17.1 100430 82
2003-06-30 06:40 51°13.66 2°55.83 2.2 54 17.1 100440 82
2003-06-30 06:41 51°13.66 2°55.77 2 68 17.1 100440 82
2003-06-30 06:42 51°13.69 2°55.77 3.6 124 17.2 100430 82
2003-06-30 06:43 51°13.75 2°55.72 1.7 127 17.2 100440 82
2003-06-30 06:44 51°13.84 2°55.64 1.4 51 17.2 100430 82
2003-06-30 06:45 51°13.95 2°55.56 2.1 57 17.2 100430 82
2003-06-30 06:46 51°14.1 2°55.45 2.1 93 17.2 100430 82
2003-06-30 06:47 51°14.23 2°55.31 2 55 17.2 100420 82
2003-06-30 06:48 51°14.33 2°55.12 2.6 53 17.3 100420 82
2003-06-30 06:49 51°14.46 2°54.91 1.9 54 17.2 100410 82
2003-06-30 06:50 51°14.6 2°54.71 3.4 50 17.2 100410 82
2003-06-30 06:51 51°14.76 2°54.59 5.7 63 17.2 100400 82
2003-06-30 06:52 51°14.95 2°54.53 6.9 63 17.2 100400 82
2003-06-30 06:53 51°15.15 2°54.48 4.9 69 17.2 100400 82
2003-06-30 06:54 51°15.34 2°54.4 6.8 65 17.2 100400 82
2003-06-30 06:55 51°15.53 2°54.38 7.2 57 17.2 100400 82
2003-06-30 06:56 51°15.72 2°54.38 7.8 56 17.2 100390 82
2003-06-30 06:57 51°15.91 2°54.36 6.6 65 17.2 100390 82
2003-06-30 06:58 51°16.09 2°54.29 6 69 17.3 100380 82
2003-06-30 06:59 51°16.23 2°54.23 5 95 17.3 100380 81
2003-06-30 07:00 51°16.27 2°54.19 6.4 91 17.4 100380 81
2003-06-30 07:01 51°16.27 2°54.16 5.4 71 17.4 100370 81
2003-06-30 07:02 51°16.27 2°54.15 6.6 61 17.4 100370 81
2003-06-30 07:03 51°16.28 2°54.14 6.2 56 17.4 100360 81
2003-06-30 07:05 51°16.28 2°54.13 6.4 50 17.4 100350 80
2003-06-30 07:06 51°16.28 2°54.12 6.6 42 17.4 100350 80
2003-06-30 07:07 51°16.28 2°54.12 7.2 38 17.4 100340 80
2003-06-30 07:08 51°16.28 2°54.12 6.7 36 17.4 100340 80
2003-06-30 07:09 51°16.28 2°54.12 6.3 30 17.4 100330 81
2003-06-30 07:10 51°16.28 2°54.12 7.8 28 17.4 100330 81
2003-06-30 07:11 51°16.27 2°54.14 8 8 17.4 100330 81
2003-06-30 07:12 51°16.22 2°54.2 8.4 228 17.4 100310 81
2003-06-30 07:13 51°16.1 2°54.09 3.1 236 17.4 100320 81
2003-06-30 07:14 51°16.13 2°53.85 4.8 79 17.4 100320 81
2003-06-30 07:15 51°16.27 2°53.65 6.2 77 17.4 100310 82
2003-06-30 07:16 51°16.43 2°53.41 6 66 17.4 100300 82
2003-06-30 07:17 51°16.61 2°53.17 7.3 68 17.5 100290 82
2003-06-30 07:18 51°16.79 2°52.94 7 79 17.5 100280 82
2003-06-30 07:19 51°16.96 2°52.73 7 70 17.4 100290 81
2003-06-30 07:20 51°17.13 2°52.51 6.8 70 17.5 100270 81
2003-06-30 07:21 51°17.3 2°52.29 7.8 67 17.5 100270 81
2003-06-30 07:22 51°17.48 2°52.06 7.8 81 17.6 100260 81
2003-06-30 07:23 51°17.65 2°51.84 7.8 81 17.6 100250 81
2003-06-30 07:24 51°17.82 2°51.62 8.7 81 17.6 100240 81
2003-06-30 07:25 51°17.99 2°51.39 8.3 74 17.7 100230 81
2003-06-30 07:26 51°18.16 2°51.16 10.6 83 17.7 100220 81
2003-06-30 07:27 51°18.3 2°50.96 10.2 90 17.7 100210 80
2003-06-30 07:28 51°18.43 2°50.83 8.5 69 17.7 100210 80
2003-06-30 07:29 51°18.5 2°50.82 11.8 50 17.7 100200 80
2003-06-30 07:30 51°18.54 2°50.84 10.6 35 17.7 100200 80
2003-06-30 07:31 51°18.56 2°50.87 10.3 13 17.8 100220 80
2003-06-30 07:32 51°18.55 2°50.89 9.7 2 17.8 100220 79
2003-06-30 07:33 51°18.53 2°50.9 8.6 345 17.7 100220 79
2003-06-30 07:34 51°18.51 2°50.89 9.6 337 17.8 100220 79
2003-06-30 07:35 51°18.48 2°50.88 8.9 330 17.8 100230 79
2003-06-30 07:36 51°18.45 2°50.86 7.3 328 17.8 100230 79
2003-06-30 07:37 51°18.43 2°50.84 8.9 319 17.8 100240 80
2003-06-30 07:38 51°18.39 2°50.86 9.7 353 17.9 100240 80
2003-06-30 07:39 51°18.4 2°50.97 13.5 12 17.8 100250 79
2003-06-30 07:40 51°18.46 2°51.18 14.8 13 17.8 100240 79
2003-06-30 07:41 51°18.54 2°51.45 15.5 15 17.9 100240 79
2003-06-30 07:42 51°18.63 2°51.75 14.9 12 17.9 100240 79
2003-06-30 07:43 51°18.7 2°52.05 15.3 10 18 100260 79
2003-06-30 07:44 51°18.78 2°52.35 15.3 12 17.9 100260 79
2003-06-30 07:45 51°18.86 2°52.65 14.2 14 18 100260 79
2003-06-30 07:46 51°18.94 2°52.95 15 14 17.9 100260 78
2003-06-30 07:47 51°19.03 2°53.25 14.2 14 17.9 100280 78
2003-06-30 07:48 51°19.11 2°53.55 13.9 14 18 100280 78
2003-06-30 07:49 51°19.19 2°53.86 14.3 19 18.1 100280 78
2003-06-30 07:50 51°19.27 2°54.16 14.4 19 18.1 100290 78
2003-06-30 07:51 51°19.35 2°54.46 14.4 19 18.1 100290 78
2003-06-30 07:52 51°19.42 2°54.77 13.8 21 18.2 100300 77
2003-06-30 07:53 51°19.51 2°55.09 14 18 18.1 100300 76
2003-06-30 07:54 51°19.59 2°55.39 13.9 20 18.2 100310 76
2003-06-30 07:55 51°19.67 2°55.69 13.6 20 18.2 100310 76
2003-06-30 07:56 51°19.75 2°56 14.1 23 18.3 100320 76
2003-06-30 07:57 51°19.83 2°56.3 14.2 23 18.3 100320 77
2003-06-30 07:58 51°19.91 2°56.6 13.6 23 18.2 100320 77
2003-06-30 07:59 51°20 2°56.89 14.5 21 18.2 100320 77
2003-06-30 08:00 51°20.08 2°57.19 13.6 26 18.1 100320 77
2003-06-30 08:01 51°20.14 2°57.5 13.1 22 18.1 100320 78
2003-06-30 08:02 51°20.2 2°57.81 14 20 18.1 100320 78
2003-06-30 08:03 51°20.26 2°58.13 14.9 22 18.2 100320 79
2003-06-30 08:04 51°20.32 2°58.43 14.6 24 18.1 100320 79
2003-06-30 08:05 51°20.38 2°58.74 14.4 20 18 100310 79
2003-06-30 08:06 51°20.44 2°59.05 14 18 17.9 100310 79
2003-06-30 08:07 51°20.5 2°59.36 13.6 18 17.9 100300 79
2003-06-30 08:08 51°20.56 2°59.67 13.8 18 17.9 100300 79
2003-06-30 08:09 51°20.62 2°59.97 14.1 19 17.9 100310 80
2003-06-30 08:10 51°20.68 3°0.28 14.4 19 17.8 100300 79
2003-06-30 08:11 51°20.74 3°0.59 13.5 18 17.8 100290 79
2003-06-30 08:12 51°20.8 3°0.89 14.3 14 17.8 100290 79
2003-06-30 08:13 51°20.87 3°1.2 13.6 20 17.8 100290 79
2003-06-30 08:14 51°20.93 3°1.51 13.9 20 17.8 100300 79
2003-06-30 08:15 51°21.01 3°1.81 13.3 21 17.8 100290 78
2003-06-30 08:16 51°21.1 3°2.11 13.4 20 17.8 100300 79
2003-06-30 08:17 51°21.18 3°2.4 13.7 23 17.9 100300 79
2003-06-30 08:18 51°21.26 3°2.7 12.9 22 17.9 100300 78
2003-06-30 08:19 51°21.34 3°2.99 12.8 21 17.9 100300 78
2003-06-30 08:20 51°21.42 3°3.28 13.3 19 18 100310 79
2003-06-30 08:21 51°21.5 3°3.57 14 23 17.9 100310 78
2003-06-30 08:22 51°21.59 3°3.86 14 22 18 100300 78
2003-06-30 08:23 51°21.67 3°4.16 13.2 25 18 100300 78
2003-06-30 08:24 51°21.75 3°4.45 13.4 25 18 100310 78
2003-06-30 08:25 51°21.82 3°4.75 13.1 25 18 100310 78
2003-06-30 08:26 51°21.88 3°5.06 14.1 22 18.1 100310 77
2003-06-30 08:27 51°21.95 3°5.37 13 21 18.1 100310 78
2003-06-30 08:28 51°22.01 3°5.67 13.4 24 18.1 100320 78
2003-06-30 08:29 51°22.08 3°5.98 13.7 21 18.1 100320 77
2003-06-30 08:30 51°22.12 3°6.29 13.7 24 18.1 100320 78
2003-06-30 08:31 51°22.17 3°6.6 13.1 22 18.1 100330 76
2003-06-30 08:32 51°22.22 3°6.92 12.8 24 18.2 100330 78
2003-06-30 08:33 51°22.26 3°7.23 12.8 24 18.2 100330 77
2003-06-30 08:34 51°22.33 3°7.54 13.2 19 18.2 100320 77
2003-06-30 08:35 51°22.39 3°7.86 13.3 7 18.2 100330 77
2003-06-30 08:36 51°22.35 3°8.18 12.6 8 18.2 100320 75
2003-06-30 08:37 51°22.36 3°8.51 12.6 12 18.3 100320 76
2003-06-30 08:38 51°22.38 3°8.85 12.8 12 18.3 100320 76
2003-06-30 08:39 51°22.38 3°9.18 11.9 12 18.3 100320 76
2003-06-30 08:40 51°22.38 3°9.52 12.1 14 18.3 100320 77
2003-06-30 08:41 51°22.39 3°9.85 12.8 17 18.3 100330 76
2003-06-30 08:42 51°22.4 3°10.19 12.5 14 18.4 100330 78
2003-06-30 08:43 51°22.42 3°10.53 11.9 13 18.3 100330 77
2003-06-30 08:44 51°22.43 3°10.87 12.6 15 18.3 100340 78
2003-06-30 08:45 51°22.44 3°11.21 12.4 18 18.3 100340 78
2003-06-30 08:46 51°22.46 3°11.54 11.8 13 18.3 100350 78
2003-06-30 08:47 51°22.47 3°11.87 12.9 9 18.3 100350 78
2003-06-30 08:48 51°22.49 3°12.21 11.2 17 18.2 100350 79
2003-06-30 08:49 51°22.5 3°12.55 12 15 18.2 100360 79
2003-06-30 08:50 51°22.53 3°12.84 10.4 21 18.2 100360 79
2003-06-30 08:51 51°22.55 3°13.04 9 9 18.1 100360 79
2003-06-30 08:52 51°22.53 3°13.13 6 13 18.1 100370 80
2003-06-30 08:53 51°22.52 3°13.13 5.8 21 18.1 100380 80
2003-06-30 08:54 51°22.52 3°13.13 5 34 18 100380 80
2003-06-30 08:55 51°22.53 3°13.14 5.2 55 18 100370 80
2003-06-30 08:56 51°22.54 3°13.15 5.2 68 18 100370 80
2003-06-30 08:57 51°22.56 3°13.15 4.8 77 18 100380 81
2003-06-30 08:58 51°22.57 3°13.16 5.5 60 18 100380 81
2003-06-30 08:59 51°22.58 3°13.15 4 75 18 100370 81
2003-06-30 09:00 51°22.61 3°13.14 4.8 101 18 100370 81
2003-06-30 09:01 51°22.63 3°13.12 4.2 119 18 100370 81
2003-06-30 09:02 51°22.66 3°13.08 4.7 116 18 100370 81
2003-06-30 09:03 51°22.69 3°13.06 4.4 106 18 100370 81
2003-06-30 09:04 51°22.72 3°13.03 4.7 101 17.9 100370 81
2003-06-30 09:05 51°22.75 3°13.01 4.5 98 17.9 100370 81
2003-06-30 09:06 51°22.77 3°12.98 4.3 115 18 100370 81
2003-06-30 09:07 51°22.8 3°12.96 4.3 107 17.9 100370 81
2003-06-30 09:08 51°22.83 3°12.94 4.7 95 17.9 100370 81
2003-06-30 09:09 51°22.86 3°12.93 4.7 90 17.9 100370 81
2003-06-30 09:10 51°22.94 3°12.98 7.9 52 17.9 100360 81
2003-06-30 09:11 51°23.1 3°13.12 9.6 42 17.8 100350 81
2003-06-30 09:12 51°23.27 3°13.31 10.5 33 17.8 100350 81
2003-06-30 09:13 51°23.43 3°13.54 10.7 33 17.9 100350 81
2003-06-30 09:14 51°23.59 3°13.78 10.5 32 17.8 100350 81
2003-06-30 09:15 51°23.74 3°14.03 11.9 35 17.8 100350 81
2003-06-30 09:16 51°23.88 3°14.28 10.7 36 17.8 100350 80
2003-06-30 09:17 51°24.03 3°14.54 10.8 40 17.8 100350 80
2003-06-30 09:18 51°24.18 3°14.8 11.9 41 17.8 100350 80
2003-06-30 09:19 51°24.33 3°15.06 10.7 41 17.9 100350 80
2003-06-30 09:20 51°24.49 3°15.32 11.7 44 17.9 100350 80
2003-06-30 09:21 51°24.65 3°15.59 11.4 44 17.9 100350 80
2003-06-30 09:22 51°24.8 3°15.86 11.2 38 17.9 100350 80
2003-06-30 09:23 51°24.95 3°16.14 11.7 41 17.9 100350 80
2003-06-30 09:24 51°25.1 3°16.41 12.1 33 17.9 100340 81
2003-06-30 09:25 51°25.25 3°16.68 10.9 41 18 100350 81
2003-06-30 09:26 51°25.39 3°16.95 10.8 30 18 100350 82
2003-06-30 09:27 51°25.53 3°17.22 11.7 35 17.9 100340 82
2003-06-30 09:28 51°25.66 3°17.47 10.6 40 17.9 100350 82
2003-06-30 09:29 51°25.75 3°17.66 8.7 43 17.8 100350 83
2003-06-30 09:30 51°25.82 3°17.77 5.5 78 17.9 100350 83
2003-06-30 09:31 51°25.86 3°17.8 7.7 83 17.8 100360 83
2003-06-30 09:32 51°25.87 3°17.82 5.6 66 17.8 100360 83
2003-06-30 09:33 51°25.86 3°17.84 6.6 84 17.8 100370 83
2003-06-30 09:34 51°25.86 3°17.85 5.2 76 17.8 100370 83
2003-06-30 09:35 51°25.86 3°17.87 6.1 80 17.9 100370 84
2003-06-30 09:36 51°25.85 3°17.88 7.4 84 17.9 100370 82
2003-06-30 09:37 51°25.85 3°17.88 7 89 17.8 100380 82
2003-06-30 09:38 51°25.86 3°17.91 7.3 105 17.8 100380 82
2003-06-30 09:39 51°25.92 3°17.84 0.5 280 17.8 100390 82
2003-06-30 09:40 51°25.9 3°17.61 5.1 298 17.8 100400 82
2003-06-30 09:41 51°25.79 3°17.36 9.8 310 17.8 100400 82
2003-06-30 09:42 51°25.64 3°17.12 8.8 320 17.9 100390 83
2003-06-30 09:43 51°25.48 3°16.86 9.4 316 17.9 100400 83
2003-06-30 09:44 51°25.33 3°16.57 9.3 43 17.9 100400 83
2003-06-30 09:45 51°25.19 3°16.27 8.9 229 17.8 100410 83
2003-06-30 09:46 51°25.13 3°15.91 6.7 309 17.8 100410 83
2003-06-30 09:47 51°25.1 3°15.55 7.4 310 17.8 100420 84
2003-06-30 09:48 51°25.07 3°15.19 7.1 314 17.7 100420 84
2003-06-30 09:49 51°25.04 3°14.82 6.6 304 17.7 100420 84
2003-06-30 09:50 51°25.03 3°14.46 7.9 311 17.7 100420 84
2003-06-30 09:51 51°25.02 3°14.1 7.1 307 17.7 100420 85
2003-06-30 09:52 51°25.02 3°13.73 6.4 314 17.7 100430 85
2003-06-30 09:53 51°25.02 3°13.37 8 307 17.7 100430 85
2003-06-30 09:54 51°25.01 3°13 9 304 17.7 100430 85
2003-06-30 09:55 51°25.04 3°12.65 6 303 17.6 100440 85
2003-06-30 09:56 51°25.13 3°12.32 5.2 299 17.7 100440 85
2003-06-30 09:57 51°25.24 3°12.01 4 307 17.7 100450 85
2003-06-30 09:58 51°25.39 3°11.76 2 299 17.6 100450 85
2003-06-30 09:59 51°25.56 3°11.55 1 47 17.6 100450 85
2003-06-30 10:00 51°25.75 3°11.42 0.6 165 17.6 100450 85
2003-06-30 10:01 51°25.89 3°11.24 2.5 313 17.5 100440 85
2003-06-30 10:02 51°25.96 3°10.97 5.4 291 17.6 100430 85
2003-06-30 10:03 51°26.03 3°10.67 5.4 293 17.6 100420 85
2003-06-30 10:04 51°26.09 3°10.35 4.5 308 17.5 100410 85
2003-06-30 10:05 51°26.15 3°10.02 3.5 320 17.5 100400 85
2003-06-30 10:06 51°26.2 3°9.68 3.7 333 17.4 100390 85
2003-06-30 10:07 51°26.26 3°9.34 2.4 352 17.5 100380 85
2003-06-30 10:08 51°26.32 3°9 3.4 337 17.5 100370 85
2003-06-30 10:09 51°26.39 3°8.68 2.1 335 17.5 100370 85
2003-06-30 10:10 51°26.44 3°8.47 1.9 279 17.5 100380 85
2003-06-30 10:11 51°26.47 3°8.35 1.6 228 17.5 100380 85
2003-06-30 10:12 51°26.46 3°8.32 3.4 165 17.4 100390 85
2003-06-30 10:13 51°26.46 3°8.3 1.8 181 17.4 100400 85
2003-06-30 10:14 51°26.46 3°8.29 2.5 177 17.5 100400 85
2003-06-30 10:15 51°26.45 3°8.28 3.2 154 17.5 100380 84
2003-06-30 10:16 51°26.45 3°8.27 3.3 151 17.4 100380 84
2003-06-30 10:17 51°26.44 3°8.26 3.8 137 17.3 100370 84
2003-06-30 10:18 51°26.44 3°8.25 4.7 123 17.3 100360 84
2003-06-30 10:19 51°26.46 3°8.24 3.3 104 17.3 100360 84
2003-06-30 10:20 51°26.54 3°8.06 1.6 33 17.2 100370 83
2003-06-30 10:21 51°26.64 3°7.77 2.9 349 17.2 100370 83
2003-06-30 10:22 51°26.74 3°7.45 3.9 336 17.2 100380 83
2003-06-30 10:23 51°26.85 3°7.14 3.1 318 17.2 100390 83
2003-06-30 10:24 51°26.96 3°6.84 2.3 320 17.3 100390 83
2003-06-30 10:25 51°27.08 3°6.53 2.8 2 17.2 100390 82
2003-06-30 10:26 51°27.19 3°6.23 4 343 17.3 100390 82
2003-06-30 10:27 51°27.3 3°5.92 6.1 347 17.3 100400 82
2003-06-30 10:28 51°27.42 3°5.61 5.6 349 17.4 100400 83
2003-06-30 10:29 51°27.53 3°5.31 5.9 334 17.4 100400 83
2003-06-30 10:30 51°27.65 3°5 6.1 331 17.4 100400 83
2003-06-30 10:31 51°27.76 3°4.7 5.9 329 17.3 100410 82
2003-06-30 10:32 51°27.88 3°4.39 6.5 322 17.3 100400 82
2003-06-30 10:33 51°27.99 3°4.08 5.4 332 17.2 100410 82
2003-06-30 10:34 51°28.09 3°3.83 2.7 290 17.2 100410 82
2003-06-30 10:35 51°28.16 3°3.69 2.8 298 17.1 100410 82
2003-06-30 10:36 51°28.23 3°3.55 2.8 311 17.2 100400 83
2003-06-30 10:37 51°28.27 3°3.46 2.9 232 17.2 100410 83
2003-06-30 10:38 51°28.26 3°3.44 2.3 251 17.2 100420 83
2003-06-30 10:39 51°28.26 3°3.42 2.8 255 17.2 100410 83
2003-06-30 10:40 51°28.25 3°3.39 2.5 253 17.2 100420 83
2003-06-30 10:41 51°28.25 3°3.37 3.1 256 17.2 100430 83
2003-06-30 10:42 51°28.24 3°3.35 5 264 17.2 100440 83
2003-06-30 10:43 51°28.24 3°3.32 5.3 308 17.3 100450 83
2003-06-30 10:44 51°28.22 3°3.13 9.6 326 17.3 100430 84
2003-06-30 10:45 51°28.18 3°2.78 11.3 330 17.3 100430 83
2003-06-30 10:46 51°28.12 3°2.43 11.7 324 17.3 100430 84
2003-06-30 10:47 51°28.05 3°2.08 11.3 315 17.2 100430 84
2003-06-30 10:48 51°27.99 3°1.72 10.1 313 16.9 100420 85
2003-06-30 10:49 51°27.92 3°1.36 9.9 228 16.7 100410 85
2003-06-30 10:50 51°27.86 3°1 10.9 310 16.7 100410 86
2003-06-30 10:51 51°27.8 3°0.64 10.7 228 16.6 100400 87
2003-06-30 10:52 51°27.73 3°0.28 10.2 310 16.5 100400 87
2003-06-30 10:53 51°27.66 2°59.92 8.4 306 16.4 100380 87
2003-06-30 10:54 51°27.6 2°59.55 7.7 304 16.3 100380 87
2003-06-30 10:55 51°27.54 2°59.19 8.1 307 16.3 100380 88
2003-06-30 10:56 51°27.49 2°58.83 8.6 309 16.4 100370 88
2003-06-30 10:57 51°27.43 2°58.46 7.3 303 16.5 100370 88
2003-06-30 10:58 51°27.38 2°58.1 7.6 307 16.4 100350 88
2003-06-30 10:59 51°27.33 2°57.73 7.3 301 16.5 100350 88
2003-06-30 11:00 51°27.28 2°57.36 8 298 16.4 100350 88
2003-06-30 11:01 51°27.23 2°56.99 7 310 16.4 100350 88
2003-06-30 11:02 51°27.18 2°56.62 7.5 296 16.4 100340 88
2003-06-30 11:03 51°27.14 2°56.25 6.1 310 16.4 100340 87
2003-06-30 11:04 51°27.09 2°55.87 6.7 306 16.4 100340 87
2003-06-30 11:05 51°27.05 2°55.5 6.2 306 16.4 100340 87
2003-06-30 11:06 51°27 2°55.13 7.4 307 16.4 100340 87
2003-06-30 11:07 51°26.96 2°54.76 7.3 308 16.5 100340 88
2003-06-30 11:08 51°26.92 2°54.39 8.1 229 16.6 100340 88
2003-06-30 11:09 51°26.87 2°54.02 8.7 319 16.6 100330 88
2003-06-30 11:10 51°26.83 2°53.65 8.6 228 16.6 100330 88
2003-06-30 11:11 51°26.79 2°53.28 7.6 305 16.6 100340 87
2003-06-30 11:12 51°26.75 2°52.92 7.2 310 16.6 100340 87
2003-06-30 11:13 51°26.71 2°52.54 7.6 310 16.6 100330 87
2003-06-30 11:14 51°26.67 2°52.18 7.9 306 16.6 100340 87
2003-06-30 11:15 51°26.63 2°51.82 8.2 304 16.6 100340 87
2003-06-30 11:16 51°26.59 2°51.47 7.4 312 16.7 100350 87
2003-06-30 11:17 51°26.55 2°51.12 8 40 16.6 100350 87
2003-06-30 11:18 51°26.51 2°50.77 9.8 305 16.6 100350 87
2003-06-30 11:19 51°26.47 2°50.42 8.3 312 16.6 100350 87
2003-06-30 11:20 51°26.43 2°50.07 8.3 227 16.6 100350 87
2003-06-30 11:21 51°26.36 2°49.73 8.4 316 16.6 100340 87
2003-06-30 11:22 51°26.28 2°49.4 9.8 307 16.6 100320 87
2003-06-30 11:23 51°26.19 2°49.07 8.9 309 16.6 100320 87
2003-06-30 11:24 51°26.1 2°48.76 9.1 293 16.6 100300 87
2003-06-30 11:25 51°26.03 2°48.55 8.2 279 16.6 100300 87
2003-06-30 11:26 51°25.99 2°48.48 9.4 273 16.6 100300 87
2003-06-30 11:27 51°25.97 2°48.46 9.6 284 16.7 100290 87
2003-06-30 11:28 51°25.96 2°48.45 9.1 296 16.7 100290 87
2003-06-30 11:29 51°25.95 2°48.45 8.6 300 16.6 100300 87
2003-06-30 11:30 51°25.95 2°48.44 8.9 297 16.7 100300 87
2003-06-30 11:31 51°25.94 2°48.44 6.5 303 16.6 100300 87
2003-06-30 11:32 51°25.94 2°48.44 7.4 305 16.6 100310 87
2003-06-30 11:33 51°25.93 2°48.43 6.2 301 16.6 100320 87
2003-06-30 11:34 51°25.93 2°48.43 6.4 306 16.6 100320 87
2003-06-30 11:35 51°25.93 2°48.43 6.7 303 16.6 100320 87
2003-06-30 11:36 51°25.93 2°48.44 6.6 293 16.6 100320 87
2003-06-30 11:37 51°25.89 2°48.4 7.2 298 16.7 100310 88
2003-06-30 11:38 51°25.8 2°48.17 7.6 320 16.7 100310 88
2003-06-30 11:39 51°25.7 2°47.86 8.5 317 16.7 100300 88
2003-06-30 11:40 51°25.6 2°47.55 9.1 315 16.7 100300 87
2003-06-30 11:41 51°25.5 2°47.24 7.9 43 16.6 100290 87
2003-06-30 11:42 51°25.39 2°46.94 7.6 317 16.6 100300 88
2003-06-30 11:43 51°25.29 2°46.63 6.9 317 16.7 100300 88
2003-06-30 11:44 51°25.2 2°46.32 8.3 313 16.7 100310 88
2003-06-30 11:45 51°25.1 2°46.02 8.3 315 16.7 100300 87
2003-06-30 11:46 51°25.02 2°45.7 7.6 230 16.7 100300 87
2003-06-30 11:47 51°24.93 2°45.38 6.8 310 16.7 100290 87
2003-06-30 11:48 51°24.85 2°45.07 7.4 301 16.7 100280 87
2003-06-30 11:49 51°24.77 2°44.76 7.2 297 16.7 100270 87
2003-06-30 11:50 51°24.68 2°44.44 7.1 289 16.7 100250 87
2003-06-30 11:51 51°24.6 2°44.13 6.2 274 16.7 100240 87
2003-06-30 11:52 51°24.53 2°43.82 6.9 268 16.8 100230 87
2003-06-30 11:53 51°24.45 2°43.5 5.1 261 16.7 100230 87
2003-06-30 11:54 51°24.39 2°43.19 7 276 16.8 100230 87
2003-06-30 11:55 51°24.32 2°42.87 5 287 16.8 100230 87
2003-06-30 11:56 51°24.25 2°42.55 6.2 301 16.9 100230 87
2003-06-30 11:57 51°24.18 2°42.23 7.2 283 16.8 100240 87
2003-06-30 11:58 51°24.11 2°41.91 6.5 294 16.9 100250 87
2003-06-30 11:59 51°24.05 2°41.59 6.8 288 16.9 100250 87
2003-06-30 12:00 51°23.98 2°41.27 7.8 308 16.9 100270 87
2003-06-30 12:01 51°23.9 2°40.94 8.1 313 16.9 100280 87
2003-06-30 12:02 51°23.82 2°40.64 7.9 318 16.9 100290 87
2003-06-30 12:03 51°23.74 2°40.33 7.5 227 17 100280 87
2003-06-30 12:04 51°23.66 2°40.02 9.6 229 17 100300 87
2003-06-30 12:05 51°23.59 2°39.71 9 310 17 100300 87
2003-06-30 12:06 51°23.51 2°39.41 8.4 313 17 100300 87
2003-06-30 12:07 51°23.43 2°39.11 8.8 310 17 100300 86
2003-06-30 12:08 51°23.34 2°38.81 8.5 309 17.1 100280 86
2003-06-30 12:09 51°23.26 2°38.52 8 312 17.1 100290 86
2003-06-30 12:10 51°23.17 2°38.22 8.5 307 17.1 100280 86
2003-06-30 12:11 51°23.08 2°37.92 8.6 311 17.1 100280 86
2003-06-30 12:12 51°22.99 2°37.61 8.1 306 17.1 100270 86
2003-06-30 12:13 51°22.9 2°37.32 7.8 309 17.1 100270 86
2003-06-30 12:14 51°22.81 2°37.03 7.8 306 17.1 100270 85
2003-06-30 12:15 51°22.73 2°36.73 7.9 305 17.2 100270 85
2003-06-30 12:16 51°22.64 2°36.42 8 309 17.1 100270 85
2003-06-30 12:17 51°22.55 2°36.14 8.2 314 17.2 100270 85
2003-06-30 12:18 51°22.46 2°35.85 9.1 227 17.2 100270 85
2003-06-30 12:19 51°22.35 2°35.55 9.5 314 17.2 100280 85
2003-06-30 12:20 51°22.25 2°35.26 9 312 17.3 100270 85
2003-06-30 12:21 51°22.13 2°35 10.2 227 17.3 100270 84
2003-06-30 12:22 51°22.01 2°34.72 9.6 226 17.3 100260 84
2003-06-30 12:23 51°21.89 2°34.44 9.7 313 17.3 100260 84
2003-06-30 12:24 51°21.77 2°34.17 9.1 43 17.3 100250 83
2003-06-30 12:25 51°21.66 2°33.89 8.9 314 17.3 100250 83
2003-06-30 12:26 51°21.54 2°33.61 8 313 17.4 100250 83
2003-06-30 12:27 51°21.42 2°33.35 8.2 311 17.4 100240 83
2003-06-30 12:28 51°21.3 2°33.07 9.3 314 17.4 100240 83
2003-06-30 12:29 51°21.19 2°32.81 8 317 17.5 100240 83
2003-06-30 12:30 51°21.07 2°32.53 9.1 41 17.5 100240 83
2003-06-30 12:31 51°20.95 2°32.26 9.3 43 17.5 100240 83
2003-06-30 12:32 51°20.84 2°32 8.7 317 17.5 100240 82
2003-06-30 12:33 51°20.72 2°31.74 7.7 228 17.5 100230 82
2003-06-30 12:34 51°20.59 2°31.47 7.7 316 17.6 100230 83
2003-06-30 12:35 51°20.47 2°31.21 7.9 227 17.6 100230 82
2003-06-30 12:36 51°20.35 2°30.97 8.7 311 17.6 100230 82
2003-06-30 12:37 51°20.24 2°30.72 6.7 314 17.6 100230 82
2003-06-30 12:38 51°20.16 2°30.47 6.2 298 17.6 100240 82
2003-06-30 12:39 51°20.1 2°30.22 6.7 313 17.6 100240 82
2003-06-30 12:40 51°20.07 2°30.05 3.5 245 17.6 100240 82
2003-06-30 12:41 51°20.08 2°30 6 241 17.6 100240 82
2003-06-30 12:42 51°20.09 2°30.03 6.9 238 17.6 100230 82
2003-06-30 12:43 51°20.1 2°30.06 7.5 261 17.5 100230 82
2003-06-30 12:44 51°20.1 2°30.07 7.4 280 17.5 100230 82
2003-06-30 12:45 51°20.08 2°30.09 8.2 291 17.5 100230 82
2003-06-30 12:46 51°20.06 2°30.12 7.1 303 17.6 100220 82
2003-06-30 12:47 51°20.03 2°30.15 6.8 290 17.6 100210 82
2003-06-30 12:48 51°20.01 2°30.15 5.5 258 17.6 100220 82
2003-06-30 12:49 51°20 2°30.12 4.9 218 17.6 100220 82
2003-06-30 12:50 51°20.06 2°30.06 6.7 115 17.6 100230 82
2003-06-30 12:51 51°20.15 2°30.17 10.8 40 17.4 100220 82
2003-06-30 12:52 51°20.13 2°30.41 11.5 357 17.5 100200 82
2003-06-30 12:53 51°20.01 2°30.68 14.4 356 17.6 100200 83
2003-06-30 12:54 51°19.87 2°30.97 14.7 357 17.6 100180 82
2003-06-30 12:55 51°19.73 2°31.26 13.3 360 17.6 100200 82
2003-06-30 12:56 51°19.59 2°31.56 14.6 1 17.6 100190 82
2003-06-30 12:57 51°19.45 2°31.85 13.7 359 17.7 100200 82
2003-06-30 12:58 51°19.31 2°32.13 14.1 358 17.7 100190 82
2003-06-30 12:59 51°19.18 2°32.42 13.7 358 17.7 100190 82
2003-06-30 13:00 51°19.04 2°32.69 12.4 357 17.7 100180 82
2003-06-30 13:01 51°18.89 2°32.96 14 359 17.7 100180 83
2003-06-30 13:02 51°18.75 2°33.24 13.6 356 17.8 100190 83
2003-06-30 13:03 51°18.6 2°33.52 15.1 358 17.7 100190 82
2003-06-30 13:04 51°18.45 2°33.8 13.8 359 17.7 100180 82
2003-06-30 13:05 51°18.3 2°34.08 13 359 17.8 100180 82
2003-06-30 13:06 51°18.16 2°34.36 12.6 358 17.8 100180 82
2003-06-30 13:07 51°18.01 2°34.64 13.4 358 17.8 100180 82
2003-06-30 13:08 51°17.87 2°34.94 13.4 358 17.8 100170 81
2003-06-30 13:09 51°17.74 2°35.24 13.3 2 17.8 100190 82
2003-06-30 13:10 51°17.6 2°35.54 14.6   17.8 100180 81
2003-06-30 13:11 51°17.45 2°35.83 14.4 358 17.8 100180 81
2003-06-30 13:12 51°17.27 2°36.06 13.2 353 17.8 100190 81
2003-06-30 13:13 51°17.09 2°36.26 12.9 350 17.9 100180 81
2003-06-30 13:14 51°16.91 2°36.47 12.6 352 17.9 100180 80
2003-06-30 13:15 51°16.78 2°36.64 8.6 352 17.9 100190 81
2003-06-30 13:16 51°16.72 2°36.76 8 344 18 100200 81
2003-06-30 13:17 51°16.69 2°36.81 6.7 316 17.9 100200 81
2003-06-30 13:18 51°16.64 2°36.78 5.2 290 18 100200 81
2003-06-30 13:19 51°16.62 2°36.75 5.8 271 18 100210 81
2003-06-30 13:20 51°16.63 2°36.75 4.3 256 18 100210 81
2003-06-30 13:21 51°16.64 2°36.75 7 267 17.9 100210 81
2003-06-30 13:22 51°16.65 2°36.75 6.6 277 17.9 100210 81
2003-06-30 13:23 51°16.66 2°36.75 5.7 285 17.9 100210 81
2003-06-30 13:24 51°16.66 2°36.76 5.9 299 17.9 100210 81
2003-06-30 13:25 51°16.66 2°36.78 5.8 301 17.9 100210 81
2003-06-30 13:26 51°16.66 2°36.79 6.2 309 17.9 100200 81
2003-06-30 13:27 51°16.66 2°36.82 7.1 316 17.9 100200 81
2003-06-30 13:28 51°16.66 2°36.84 5.9 324 17.9 100200 81
2003-06-30 13:29 51°16.66 2°36.88 5 328 18 100200 81
2003-06-30 13:30 51°16.66 2°36.91 5.1 346 18 100200 81
2003-06-30 13:31 51°16.66 2°36.96 5.1 351 18 100210 81
2003-06-30 13:32 51°16.67 2°37.01 5.8 359 18 100210 81
2003-06-30 13:33 51°16.67 2°37.06 5.6 12 18 100200 81
2003-06-30 13:34 51°16.68 2°37.13 6.6 2 17.9 100200 81
2003-06-30 13:35 51°16.6 2°37.24 10.2 349 17.9 100200 81
2003-06-30 13:36 51°16.43 2°37.36 10.9 352 18 100190 82
2003-06-30 13:37 51°16.22 2°37.48 11.9 356 18 100190 82
2003-06-30 13:38 51°16.02 2°37.6 12.2 351 18 100200 82
2003-06-30 13:39 51°15.82 2°37.73 10.7 2 18 100190 83
2003-06-30 13:40 51°15.61 2°37.85 11.3 2 18 100200 83
2003-06-30 13:41 51°15.41 2°38.03 10.8 2 17.9 100200 83
2003-06-30 13:42 51°15.21 2°38.2 10.9 3 17.9 100210 83
2003-06-30 13:43 51°15 2°38.38 10.4 7 18 100210 84
2003-06-30 13:44 51°14.81 2°38.54 10.3 9 18 100210 84
2003-06-30 13:45 51°14.61 2°38.72 11.3 8 18.1 100210 84
2003-06-30 13:46 51°14.42 2°38.88 9.8 6 18.1 100210 84
2003-06-30 13:47 51°14.22 2°39.05 10.8 15 18.2 100210 84
2003-06-30 13:48 51°14.01 2°39.2 10.6 12 18.2 100210 84
2003-06-30 13:49 51°13.81 2°39.34 10.7 16 18.2 100220 83
2003-06-30 13:50 51°13.6 2°39.47 11 19 18.3 100210 84
2003-06-30 13:51 51°13.39 2°39.61 11.7 13 18.3 100210 83
2003-06-30 13:52 51°13.19 2°39.74 11.1 12 18.3 100210 83
2003-06-30 13:53 51°12.99 2°39.9 11.4 16 18.3 100200 84
2003-06-30 13:54 51°12.79 2°40.08 11.9 15 18.3 100210 84
2003-06-30 13:55 51°12.6 2°40.24 10.7 15 18.2 100210 84
2003-06-30 13:56 51°12.41 2°40.41 11.4 24 18.2 100210 84
2003-06-30 13:57 51°12.21 2°40.56 11 21 18.3 100210 84
2003-06-30 13:58 51°12.04 2°40.7 9.7 23 18.2 100220 84
2003-06-30 13:59 51°11.9 2°40.83 9.7 18 18.2 100220 85
2003-06-30 14:00 51°11.76 2°40.96 9.3 19 18.2 100230 84
2003-06-30 14:01 51°11.61 2°41.11 10.5 23 18.2 100220 85
2003-06-30 14:02 51°11.47 2°41.32 9.5 33 18.3 100210 85
2003-06-30 14:03 51°11.34 2°41.57 8.4 31 18.3 100210 85
2003-06-30 14:04 51°11.28 2°41.89 7.3 45 18.2 100210 84
2003-06-30 14:05 51°11.23 2°42.13 6.6 16 18.3 100220 84
2003-06-30 14:06 51°11.17 2°42.14 5.2 350 18.3 100230 84
2003-06-30 14:07 51°11.15 2°42.09 4.1 342 18.3 100230 84
2003-06-30 14:08 51°11.13 2°42.08 4.4 351 18.4 100230 85
2003-06-30 14:09 51°11.12 2°42.08 3.9 356 18.4 100230 85
2003-06-30 14:10 51°11.11 2°42.09 4.8 348 18.4 100230 85
2003-06-30 14:11 51°11.1 2°42.1 4.3 359 18.4 100230 85
2003-06-30 14:12 51°11.09 2°42.12 3.9 1 18.3 100220 85
2003-06-30 14:13 51°11.09 2°42.15 4.2 359 18.3 100220 85
2003-06-30 14:14 51°11.09 2°42.18 3.9 11 18.2 100220 85
2003-06-30 14:15 51°11.09 2°42.21 3.3 29 18.2 100220 85
2003-06-30 14:16 51°11.09 2°42.24 3.3 51 18.2 100220 85
2003-06-30 14:17 51°11.09 2°42.28 2.9 63 18.2 100220 85
2003-06-30 14:18 51°11.1 2°42.32 3 65 18.3 100220 85
2003-06-30 14:19 51°11.12 2°42.49 6.6 38 18.3 100210 85
2003-06-30 14:20 51°11.17 2°42.85 7.5 30 18.3 100210 85
2003-06-30 14:21 51°11.22 2°43.23 9.1 33 18.3 100210 85
2003-06-30 14:22 51°11.27 2°43.61 8.6 38 18.4 100200 84
2003-06-30 14:23 51°11.34 2°43.99 7.8 35 18.4 100220 84
2003-06-30 14:24 51°11.4 2°44.36 8.8 31 18.5 100220 84
2003-06-30 14:25 51°11.48 2°44.73 9 35 18.5 100210 84
2003-06-30 14:26 51°11.55 2°45.1 8.5 36 18.5 100210 83
2003-06-30 14:27 51°11.61 2°45.47 9.6 42 18.5 100210 83
2003-06-30 14:28 51°11.69 2°45.84 9.1 40 18.5 100210 83
2003-06-30 14:29 51°11.76 2°46.21 8.5 34 18.5 100210 83
2003-06-30 14:30 51°11.83 2°46.58 8 38 18.5 100210 83
2003-06-30 14:31 51°11.91 2°46.94 8.4 41 18.4 100210 83
2003-06-30 14:32 51°12 2°47.3 8.1 41 18.4 100210 83
2003-06-30 14:33 51°12.09 2°47.66 8 36 18.5 100210 83
2003-06-30 14:34 51°12.19 2°48.01 6.9 42 18.5 100210 83
2003-06-30 14:35 51°12.29 2°48.36 7 35 18.5 100200 83
2003-06-30 14:36 51°12.4 2°48.71 6.9 31 18.5 100210 83
2003-06-30 14:37 51°12.51 2°49.06 7.4 38 18.5 100200 83
2003-06-30 14:38 51°12.61 2°49.4 7.7 37 18.5 100200 82
2003-06-30 14:39 51°12.72 2°49.74 7.5 38 18.5 100210 82
2003-06-30 14:40 51°12.84 2°50.08 7.8 43 18.5 100210 82
2003-06-30 14:41 51°12.96 2°50.41 7.7 43 18.5 100210 82
2003-06-30 14:42 51°13.08 2°50.74 7.4 52 18.5 100210 82
2003-06-30 14:43 51°13.21 2°51.07 7 46 18.5 100210 82
2003-06-30 14:44 51°13.35 2°51.39 7.2 40 18.5 100220 82
2003-06-30 14:45 51°13.48 2°51.71 7.6 52 18.5 100210 82
2003-06-30 14:46 51°13.62 2°52.02 6.7 49 18.5 100210 83
2003-06-30 14:47 51°13.76 2°52.34 7.6 51 18.5 100210 82
2003-06-30 14:48 51°13.89 2°52.67 8 47 18.6 100220 82
2003-06-30 14:49 51°14.03 2°52.99 6.5 45 18.5 100220 82
2003-06-30 14:50 51°14.16 2°53.31 6.8 58 18.6 100220 82
2003-06-30 14:51 51°14.28 2°53.64 7.6 55 18.6 100220 82
2003-06-30 14:52 51°14.37 2°53.97 6 44 18.6 100220 82
2003-06-30 14:53 51°14.38 2°54.31 8.5 49 18.6 100220 82
2003-06-30 14:54 51°14.38 2°54.65 8.2 36 18.6 100210 82
2003-06-30 14:55 51°14.35 2°54.97 8.2 24 18.6 100220 82
2003-06-30 14:56 51°14.28 2°55.23 5.4 18 18.6 100220 82
2003-06-30 14:57 51°14.19 2°55.36 4.6 14 18.6 100220 82
2003-06-30 14:58 51°14.11 2°55.42 4.1 20 18.7 100220 82
2003-06-30 14:59 51°14.05 2°55.47 4 20 18.7 100220 83
2003-06-30 15:00 51°13.97 2°55.54 4.9 17 18.7 100220 83
2003-06-30 15:01 51°13.87 2°55.62 5.1 22 18.6 100210 83
2003-06-30 15:02 51°13.77 2°55.69 5.4 12 18.6 100200 83